Date String (YYYY-MM-DD hh:mm:ss) UTC,Instrument flags,Ambient pressure (hPa),Sample flow (lpm),Bypass flow (lpm),Sample temperature (°C),Ambient temperature (°C),ASC tube jacket temperature (°C),LED temperature (°C),Box temperature (°C),Sample RH (%),Span deviation,Mass concentration (μg/m³),Mass concentration (μg/m³),Mass concentration (μg/m³)
DateTimeUTC,F1_M11,P_M11,Q1_M11,Q2_M11,T1_M11,T2_M11,T3_M11,T4_M11,T5_M11,U1_M11,ZSPAN_M11,X0_M11,X2_M11,X1_M11
2022-05-26 09:00:00,,0825.9,5.00,0.00,28.9,27.6,00.0,37.9,30.7,14.0,0000.0,0005.15,0002.67,0002.09
2022-05-26 09:01:00,,0825.9,5.01,0.00,28.9,27.6,00.0,37.9,30.7,13.7,0000.0,0005.43,0002.62,0002.09
2022-05-26 09:02:00,,0825.9,4.99,0.00,28.9,27.5,00.0,37.9,30.7,13.5,0000.0,0006.45,0002.64,0002.07
2022-05-26 09:03:00,,0825.8,5.01,0.00,28.9,27.5,00.0,37.9,30.7,13.4,0000.0,0006.53,0002.65,0002.06
2022-05-26 09:04:00,,0825.8,5.00,0.00,28.9,27.5,00.0,37.9,30.7,13.3,0000.0,0007.71,0002.65,0002.07
2022-05-26 09:05:00,,0825.9,4.99,0.00,28.9,27.5,00.0,37.9,30.7,13.4,0000.0,0008.11,0002.69,0002.08
2022-05-26 09:06:00,,0825.9,5.00,0.00,28.9,27.5,00.0,37.9,30.7,13.4,0000.0,0008.14,0002.68,0002.09
2022-05-26 09:07:00,,0825.9,5.00,0.00,28.9,27.5,00.0,37.9,30.7,13.5,0000.0,0008.12,0002.68,0002.08
2022-05-26 09:08:00,,0825.9,5.00,0.00,28.9,27.5,00.0,37.9,30.7,13.5,0000.0,0008.44,0002.68,0002.08
2022-05-26 09:09:00,,0825.8,5.00,0.00,28.8,27.5,00.0,37.9,30.6,13.6,0000.0,0008.28,0002.60,0002.07
2022-05-26 09:10:00,,0825.8,5.01,0.00,28.8,27.5,00.0,37.8,30.6,13.8,0000.0,0008.23,0002.61,0002.07
2022-05-26 09:11:00,,0825.9,4.99,0.00,28.8,27.5,00.0,37.8,30.6,13.7,0000.0,0008.13,0002.60,0002.06
2022-05-26 09:12:00,,0825.9,4.99,0.00,28.8,27.5,00.0,37.8,30.6,13.6,0000.0,0007.83,0002.57,0002.04
2022-05-26 09:13:00,,0825.9,5.00,0.00,28.8,27.5,00.0,37.8,30.6,13.5,0000.0,0007.27,0002.51,0002.04
2022-05-26 09:14:00,,0825.9,4.99,0.00,28.8,27.5,00.0,37.8,30.6,13.4,0000.0,0007.44,0002.49,0002.03
2022-05-26 09:15:00,,0825.8,5.00,0.00,28.8,27.4,00.0,37.8,30.6,13.5,0000.0,0005.87,0002.48,0002.01
2022-05-26 09:16:00,,0825.9,5.00,0.00,28.8,27.4,00.0,37.8,30.6,13.5,0000.0,0005.49,0002.46,0002.00
2022-05-26 09:17:00,,0825.9,5.01,0.00,28.8,27.4,00.0,37.8,30.6,13.6,0000.0,0005.65,0002.47,0002.00
2022-05-26 09:18:00,,0825.9,5.00,0.00,28.8,27.4,00.0,37.8,30.5,13.7,0000.0,0005.78,0002.49,0001.99
2022-05-26 09:19:00,,0826.0,4.99,0.00,28.8,27.4,00.0,37.8,30.5,13.8,0000.0,0004.87,0002.51,0001.99
2022-05-26 09:20:00,,0826.0,5.00,0.00,28.7,27.4,00.0,37.8,30.5,13.8,0000.0,0004.41,0002.50,0001.99
2022-05-26 09:21:00,,0826.0,5.01,0.00,28.7,27.4,00.0,37.7,30.5,13.7,0000.0,0004.37,0002.47,0001.98
2022-05-26 09:22:00,,0826.0,5.00,0.00,28.7,27.3,00.0,37.7,30.5,13.6,0000.0,0004.50,0002.47,0001.97
2022-05-26 09:23:00,,0826.0,5.01,0.00,28.7,27.3,00.0,37.7,30.5,13.6,0000.0,0004.65,0002.50,0001.98
2022-05-26 09:24:00,,0826.0,5.00,0.00,28.7,27.3,00.0,37.7,30.5,13.5,0000.0,0004.95,0002.54,0001.97
2022-05-26 09:25:00,,0826.1,5.01,0.00,28.7,27.3,00.0,37.7,30.5,13.5,0000.0,0004.77,0002.55,0001.96
2022-05-26 09:26:00,,0826.0,5.00,0.00,28.7,27.3,00.0,37.7,30.5,13.6,0000.0,0005.03,0002.59,0001.97
2022-05-26 09:27:00,,0826.0,4.99,0.00,28.7,27.3,00.0,37.7,30.5,13.6,0000.0,0004.99,0002.59,0001.97
2022-05-26 09:28:00,,0826.1,5.00,0.00,28.7,27.3,00.0,37.7,30.5,13.5,0000.0,0004.88,0002.59,0001.98
2022-05-26 09:29:00,,0826.0,5.00,0.00,28.7,27.3,00.0,37.7,30.5,13.5,0000.0,0004.90,0002.59,0001.98
2022-05-26 09:30:00,,0826.0,5.01,0.00,28.7,27.3,00.0,37.7,30.5,13.5,0000.0,0004.81,0002.55,0001.99
2022-05-26 09:31:00,,0826.0,5.00,0.00,28.7,27.3,00.0,37.7,30.4,13.5,0000.0,0004.88,0002.59,0002.00
2022-05-26 09:32:00,,0826.0,4.99,0.00,28.6,27.3,00.0,37.7,30.4,13.5,0000.0,0004.86,0002.59,0002.01
2022-05-26 09:33:00,,0826.0,5.01,0.00,28.6,27.3,00.0,37.6,30.4,13.4,0000.0,0004.86,0002.63,0002.02
2022-05-26 09:34:00,,0826.1,5.01,0.00,28.6,27.3,00.0,37.6,30.4,13.3,0000.0,0004.74,0002.64,0002.04
2022-05-26 09:35:00,,0826.1,5.01,0.00,28.6,27.3,00.0,37.6,30.4,13.4,0000.0,0004.54,0002.67,0002.05
2022-05-26 09:36:00,,0826.2,4.99,0.00,28.6,27.3,00.0,37.6,30.4,13.4,0000.0,0004.36,0002.67,0002.06
2022-05-26 09:37:00,,0826.1,5.00,0.00,28.6,27.3,00.0,37.6,30.4,14.3,0000.0,0004.38,0002.67,0002.08
2022-05-26 09:38:00,,0826.1,5.01,0.00,28.6,27.4,00.0,37.6,30.4,16.0,0000.0,0004.32,0002.70,0002.12
2022-05-26 09:39:00,,0826.1,5.01,0.00,28.6,27.4,00.0,37.6,30.5,15.6,0000.0,0004.55,0002.79,0002.16
2022-05-26 09:40:00,,0826.1,4.99,0.00,28.6,27.4,00.0,37.6,30.5,14.8,0000.0,0005.14,0002.91,0002.19
2022-05-26 09:41:00,,0826.1,4.99,0.00,28.6,27.5,00.0,37.6,30.5,14.4,0000.0,0005.29,0002.94,0002.21
2022-05-26 09:42:00,,0826.2,5.01,0.00,28.6,27.5,00.0,37.6,30.5,14.1,0000.0,0005.39,0002.95,0002.21
2022-05-26 09:43:00,,0826.1,5.00,0.00,28.6,27.5,00.0,37.6,30.5,14.4,0000.0,0005.67,0003.04,0002.23
2022-05-26 09:44:00,,0826.1,4.99,0.00,28.7,27.5,00.0,37.6,30.5,15.6,0000.0,0005.85,0003.04,0002.24
2022-05-26 09:45:00,,0826.1,5.00,0.00,28.7,27.5,00.0,37.6,30.5,15.4,0000.0,0005.96,0003.07,0002.26
2022-05-26 09:46:00,,0826.1,5.01,0.00,28.7,27.6,00.0,37.6,30.5,15.0,0000.0,0006.05,0003.09,0002.28
2022-05-26 09:47:00,,0826.2,5.01,0.00,28.7,27.6,00.0,37.6,30.5,15.1,0000.0,0006.26,0003.11,0002.31
2022-05-26 09:48:00,,0826.2,5.01,0.00,28.7,27.6,00.0,37.6,30.5,14.6,0000.0,0006.07,0003.11,0002.33
2022-05-26 09:49:00,,0826.2,5.01,0.00,28.7,27.6,00.0,37.6,30.5,15.0,0000.0,0006.23,0003.12,0002.34
2022-05-26 09:50:00,,0826.2,4.99,0.00,28.7,27.6,00.0,37.6,30.5,15.6,0000.0,0006.19,0003.10,0002.34
2022-05-26 09:51:00,,0826.2,5.00,0.00,28.7,27.6,00.0,37.6,30.5,15.7,0000.0,0006.47,0003.05,0002.34
2022-05-26 09:52:00,,0826.2,5.00,0.00,28.7,27.6,00.0,37.6,30.5,15.6,0000.0,0006.75,0003.04,0002.36
2022-05-26 09:53:00,,0826.2,5.01,0.00,28.7,27.6,00.0,37.6,30.6,15.5,0000.0,0007.46,0003.11,0002.38
2022-05-26 09:54:00,,0826.2,4.99,0.00,28.7,27.6,00.0,37.6,30.6,15.4,0000.0,0007.61,0003.11,0002.40
2022-05-26 09:55:00,,0826.2,5.01,0.00,28.7,27.6,00.0,37.6,30.5,15.2,0000.0,0007.48,0003.11,0002.41
2022-05-26 09:56:00,,0826.2,5.01,0.00,28.7,27.6,00.0,37.6,30.5,15.0,0000.0,0007.75,0003.11,0002.40
2022-05-26 09:57:00,,0826.2,4.99,0.00,28.7,27.6,00.0,37.6,30.6,15.0,0000.0,0007.85,0003.10,0002.40
2022-05-26 09:58:00,,0826.2,5.01,0.00,28.7,27.6,00.0,37.6,30.6,14.9,0000.0,0007.80,0003.05,0002.38
2022-05-26 09:59:00,,0826.2,5.00,0.00,28.7,27.6,00.0,37.6,30.6,14.8,0000.0,0007.91,0003.06,0002.38
